When you browse on this site, cookies collect data to enhance your experience and personalize the content and advertising you see.
Visit our Privacy Policy to learn more. By continuing to use the site, you agree to this use of cookies and data.
  • In Lithuania
  • List of Countries
  • For 7 days
  • Water Temperature
  • Satellite Maps
  • Weather Map
  • Weather Widgets
  • user-avatar
    Login

    Hourly Weather Dindigul

    Today, 19 March, Tuesday

    Time Temperature Precipitation Wind Pressure Humidity
    00:00 +28°C° 0 mm 2 mps 735 mmHg 68%
    01:00 +28°C° 0 mm 1 mps 735 mmHg 70%
    02:00 +28°C° 0 mm 1 mps 735 mmHg 72%
    03:00 +27°C° 0 mm 1 mps 735 mmHg 74%
    04:00 +27°C° 0 mm 1 mps 735 mmHg 76%
    05:00 +26°C° 0 mm 1 mps 735 mmHg 78%
    06:00 +27°C° 0 mm 1 mps 735 mmHg 74%
    07:00 +28°C° 0 mm 1 mps 735 mmHg 70%
    08:00 +29°C° 0 mm 1 mps 736 mmHg 66%
    09:00 +31°C° 0 mm 1 mps 736 mmHg 58%
    10:00 +34°C° 0 mm 2 mps 735 mmHg 50%
    11:00 +35°C° 0 mm 2 mps 735 mmHg 42%
    12:00 +36°C° 0 mm 2 mps 734 mmHg 37%
    13:00 +37°C° 0 mm 2 mps 733 mmHg 33%
    14:00 +38°C° 0 mm 3 mps 733 mmHg 29%
    15:00 +38°C° 0 mm 3 mps 732 mmHg 28%
    16:00 +38°C° 0 mm 3 mps 732 mmHg 28%
    17:00 +38°C° 0 mm 3 mps 732 mmHg 27%
    18:00 +36°C° 0 mm 3 mps 733 mmHg 33%
    19:00 +34°C° 0 mm 3 mps 733 mmHg 39%
    20:00 +33°C° 0 mm 3 mps 734 mmHg 45%
    21:00 +31°C° 0 mm 2 mps 734 mmHg 50%
    22:00 +30°C° 0 mm 2 mps 734 mmHg 55%
    23:00 +29°C° 0 mm 2 mps 734 mmHg 60%

    Tomorrow, 20 March, Wednesday

    Time Temperature Precipitation Wind Pressure Humidity
    00:00 +29°C° 0 mm 2 mps 734 mmHg 63%
    01:00 +28°C° 0 mm 2 mps 733 mmHg 66%
    02:00 +28°C° 0 mm 1 mps 733 mmHg 69%
    03:00 +27°C° 0 mm 1 mps 733 mmHg 71%
    04:00 +27°C° 0 mm 1 mps 733 mmHg 74%
    05:00 +26°C° 0 mm 1 mps 733 mmHg 76%
    06:00 +27°C° 0 mm 1 mps 734 mmHg 72%
    07:00 +28°C° 0 mm 2 mps 734 mmHg 69%
    08:00 +29°C° 0 mm 2 mps 735 mmHg 65%
    09:00 +31°C° 0 mm 2 mps 735 mmHg 56%
    10:00 +34°C° 0 mm 2 mps 735 mmHg 48%
    11:00 +35°C° 0 mm 2 mps 735 mmHg 40%
    12:00 +36°C° 0 mm 3 mps 734 mmHg 36%
    13:00 +37°C° 0 mm 3 mps 733 mmHg 31%
    14:00 +38°C° 0 mm 3 mps 732 mmHg 27%
    15:00 +38°C° 0 mm 3 mps 732 mmHg 27%
    16:00 +38°C° 0 mm 3 mps 732 mmHg 27%
    17:00 +38°C° 0 mm 3 mps 732 mmHg 27%
    18:00 +36°C° 0 mm 3 mps 733 mmHg 31%
    19:00 +34°C° 0 mm 3 mps 733 mmHg 35%
    20:00 +31°C° 0 mm 3 mps 734 mmHg 39%
    21:00 +31°C° 0 mm 3 mps 734 mmHg 43%
    22:00 +30°C° 0 mm 2 mps 735 mmHg 47%
    23:00 +29°C° 0 mm 2 mps 735 mmHg 51%

    Day after tomorrow, 21 March, Thursday

    Time Temperature Precipitation Wind Pressure Humidity
    00:00 +28°C° 0 mm 2 mps 734 mmHg 57%
    01:00 +27°C° 0 mm 2 mps 734 mmHg 63%
    02:00 +27°C° 0 mm 2 mps 733 mmHg 68%
    03:00 +26°C° 0 mm 1 mps 733 mmHg 73%
    04:00 +26°C° 0 mm 1 mps 733 mmHg 77%
    05:00 +25°C° 0 mm 1 mps 734 mmHg 81%
    06:00 +26°C° 0 mm 1 mps 734 mmHg 77%
    07:00 +27°C° 0 mm 2 mps 735 mmHg 72%
    08:00 +28°C° 0 mm 2 mps 736 mmHg 68%
    09:00 +30°C° 0 mm 2 mps 736 mmHg 58%
    10:00 +32°C° 0 mm 2 mps 736 mmHg 48%
    11:00 +35°C° 0 mm 3 mps 736 mmHg 38%
    12:00 +36°C° 0 mm 3 mps 735 mmHg 34%
    13:00 +37°C° 0 mm 3 mps 734 mmHg 30%
    14:00 +38°C° 0 mm 3 mps 733 mmHg 26%
    15:00 +38°C° 0 mm 3 mps 733 mmHg 26%
    16:00 +37°C° 0 mm 3 mps 733 mmHg 26%
    17:00 +37°C° 0 mm 3 mps 733 mmHg 26%
    18:00 +35°C° 0 mm 3 mps 733 mmHg 30%
    19:00 +34°C° 0 mm 2 mps 734 mmHg 35%
    20:00 +31°C° 0 mm 2 mps 735 mmHg 40%
    21:00 +30°C° 0 mm 2 mps 735 mmHg 46%
    22:00 +29°C° 0 mm 2 mps 736 mmHg 51%
    23:00 +28°C° 0 mm 2 mps 736 mmHg 56%

    22 March, Friday

    Time Temperature Precipitation Wind Pressure Humidity
    00:00 +28°C° 0 mm 1 mps 735 mmHg 62%
    01:00 +27°C° 0 mm 1 mps 735 mmHg 67%
    02:00 +26°C° 0 mm 1 mps 734 mmHg 72%
    03:00 +26°C° 0 mm 1 mps 734 mmHg 75%
    04:00 +25°C° 0 mm 1 mps 734 mmHg 78%
    05:00 +25°C° 0 mm 1 mps 734 mmHg 81%
    06:00 +26°C° 0 mm 1 mps 735 mmHg 77%
    07:00 +27°C° 0 mm 1 mps 736 mmHg 72%
    08:00 +28°C° 0 mm 1 mps 736 mmHg 67%
    09:00 +30°C° 0 mm 2 mps 736 mmHg 57%
    10:00 +32°C° 0 mm 2 mps 736 mmHg 48%
    11:00 +35°C° 0 mm 2 mps 736 mmHg 38%
    12:00 +36°C° 0 mm 3 mps 735 mmHg 33%
    13:00 +37°C° 0 mm 3 mps 734 mmHg 29%
    14:00 +38°C° 0 mm 3 mps 733 mmHg 24%
    15:00 +38°C° 0 mm 3 mps 733 mmHg 24%
    16:00 +38°C° 0 mm 2 mps 733 mmHg 24%
    17:00 +38°C° 0 mm 2 mps 733 mmHg 23%
    18:00 +36°C° 0 mm 2 mps 733 mmHg 30%
    19:00 +34°C° 0 mm 2 mps 734 mmHg 36%
    20:00 +31°C° 0 mm 2 mps 735 mmHg 42%
    21:00 +30°C° 0 mm 2 mps 735 mmHg 50%
    22:00 +30°C° 0 mm 2 mps 735 mmHg 59%
    23:00 +29°C° 0 mm 2 mps 735 mmHg 67%

    23 March, Saturday

    Time Temperature Precipitation Wind Pressure Humidity
    00:00 +28°C° 0 mm 2 mps 735 mmHg 70%
    01:00 +28°C° 0 mm 1 mps 734 mmHg 72%
    02:00 +27°C° 0 mm 1 mps 734 mmHg 75%
    03:00 +27°C° 0 mm 1 mps 734 mmHg 76%
    04:00 +25°C° 0 mm 0 mps 734 mmHg 77%
    05:00 +24°C° 0 mm 0 mps 734 mmHg 78%
    06:00 +25°C° 0 mm 0 mps 735 mmHg 73%
    07:00 +27°C° 0 mm 0 mps 736 mmHg 69%
    08:00 +28°C° 0 mm 0 mps 736 mmHg 64%
    09:00 +30°C° 0 mm 0 mps 736 mmHg 55%
    10:00 +34°C° 0 mm 1 mps 736 mmHg 45%
    11:00 +36°C° 0 mm 1 mps 735 mmHg 36%
    12:00 +38°C° 0 mm 2 mps 734 mmHg 31%
    13:00 +39°C° 0 mm 2 mps 733 mmHg 26%
    14:00 +40°C° 0 mm 3 mps 732 mmHg 21%
    15:00 +39°C° 0 mm 3 mps 732 mmHg 20%
    16:00 +39°C° 0 mm 3 mps 732 mmHg 19%
    17:00 +39°C° 0 mm 3 mps 732 mmHg 19%
    18:00 +37°C° 0 mm 2 mps 733 mmHg 23%
    19:00 +35°C° 0 mm 2 mps 733 mmHg 27%
    20:00 +34°C° 0 mm 2 mps 734 mmHg 31%
    21:00 +32°C° 0 mm 2 mps 734 mmHg 35%
    22:00 +31°C° 0 mm 2 mps 734 mmHg 39%
    23:00 +30°C° 0 mm 2 mps 734 mmHg 44%

    24 March, Sunday

    Time Temperature Precipitation Wind Pressure Humidity
    00:00 +29°C° 0 mm 2 mps 734 mmHg 45%
    01:00 +29°C° 0 mm 1 mps 733 mmHg 46%
    02:00 +28°C° 0 mm 1 mps 733 mmHg 47%
    03:00 +28°C° 0 mm 1 mps 733 mmHg 48%
    04:00 +27°C° 0 mm 1 mps 733 mmHg 49%
    05:00 +25°C° 0 mm 0 mps 733 mmHg 50%
    06:00 +26°C° 0 mm 0 mps 734 mmHg 47%
    07:00 +28°C° 0 mm 0 mps 735 mmHg 44%
    08:00 +29°C° 0 mm 0 mps 735 mmHg 41%
    09:00 +31°C° 0 mm 0 mps 735 mmHg 35%
    10:00 +35°C° 0 mm 1 mps 735 mmHg 29%
    11:00 +37°C° 0 mm 1 mps 735 mmHg 23%
    12:00 +39°C° 0 mm 2 mps 734 mmHg 21%
    13:00 +40°C° 0 mm 2 mps 733 mmHg 19%
    14:00 +40°C° 0 mm 3 mps 732 mmHg 17%
    15:00 +40°C° 0 mm 3 mps 732 mmHg 17%
    16:00 +40°C° 0 mm 3 mps 732 mmHg 18%
    17:00 +40°C° 0 mm 3 mps 732 mmHg 19%
    18:00 +38°C° 0 mm 3 mps 733 mmHg 23%
    19:00 +36°C° 0 mm 3 mps 733 mmHg 27%
    20:00 +34°C° 0 mm 2 mps 734 mmHg 31%
    21:00 +32°C° 0 mm 2 mps 734 mmHg 35%
    22:00 +31°C° 0 mm 2 mps 734 mmHg 40%
    23:00 +30°C° 0 mm 2 mps 734 mmHg 44%
    Show more